Wetbulb
60.34 60.52 62.59 62.91 63.18 63.26 63.15 62.48 62.49 62.36 61.40 61.62 60.77 59.68 59.03 60.16 60.54 60.72 61.10 62.39 65.30 66.52 66.77 66.63 65.64 64.73 63.82 63.43 62.36 61.09 59.58 59.13 58.85 58.26 57.93 57.93 57.51 57.04 57.19 56.91 56.73 56.82 56.36
58.81 59.50 59.95 61.28 61.30 61.75 62.31 61.67 59.75 60.79 61.03 60.60 60.81 60.54 59.84 59.47 59.60 60.21 61.23 61.87 64.00 65.33 66.08 66.14 65.46 64.57 64.00 63.16 62.49 60.89 59.44 58.73 58.91 58.16 57.72 57.48 56.97 57.04 56.77 56.38 56.09 55.58 55.72
56.28 58.41 59.27 59.57 60.96 61.61 61.18 60.81 60.33 60.15 60.51 61.22 60.35 60.40 60.05 59.53 59.18 59.53 60.43 60.69 62.73 62.82 64.76 65.95 65.34 64.73 64.15 63.18 62.27 60.84 59.97 59.31 58.22 57.82 57.61 57.00 56.67 56.34 56.17 55.57 54.90 54.63 54.56
53.79 54.05 56.64 58.84 60.30 59.85 58.25 57.85 59.31 59.15 58.07 58.07 58.49 59.13 59.23 59.73 59.67 60.02 60.05 60.54 60.80 61.78 63.48 64.80 64.81 64.54 63.79 63.35 62.39 61.28 60.00 59.03 58.42 57.75 57.06 56.65 56.14 55.79 55.53 55.01 53.86 54.12 53.71
51.51 51.80 52.72 54.71 58.98 59.65 58.93 58.03 57.77 57.91 57.03 57.75 57.29 56.62 57.53 58.58 59.85 60.62 60.04 60.45 60.80 61.32 61.74 63.15 63.22 63.16 63.42 63.21 62.41 61.44 60.35 59.19 58.36 57.63 56.79 56.31 55.75 55.16 54.87 54.65 53.93 53.59 52.99
49.44 49.85 50.75 51.88 54.78 58.08 58.55 59.23 58.64 58.37 57.84 57.42 56.16 54.49 54.07 56.10 58.94 59.78 59.87 60.81 61.00 60.77 60.75 61.47 61.40 60.84 62.28 63.20 62.48 61.93 60.73 59.44 58.38 57.57 56.72 55.85 55.34 54.69 54.29 54.03 53.75 53.70 53.96
48.48 48.51 49.26 50.04 51.60 54.88 56.53 56.91 57.27 57.09 54.67 54.53 53.14 52.14 52.51 52.66 53.18 57.16 60.09 60.27 59.52 59.56 60.33 60.06 60.28 59.98 61.05 62.40 62.37 61.62 60.63 59.73 58.62 57.55 56.61 55.90 55.07 54.19 53.95 53.84 53.85 53.75 53.60
47.60 48.21 48.07 48.84 50.47 53.54 54.95 55.99 56.28 55.35 54.52 54.15 52.58 51.82 50.25 51.40 51.60 52.05 53.80 58.92 59.18 59.47 59.80 60.25 60.03 59.31 59.34 59.67 58.73 61.17 60.28 59.64 58.88 57.75 56.49 55.77 54.95 54.02 53.79 53.79 53.96 54.01 53.46
46.85 47.42 47.85 48.73 49.72 51.44 53.69 54.58 55.23 55.10 53.43 52.42 53.91 52.43 48.51 48.67 48.11 49.20 50.30 52.00 57.30 58.14 59.02 59.26 59.09 58.30 58.22 57.58 58.65 58.85 59.33 59.25 58.83 58.24 56.85 55.72 54.65 53.91 53.46 53.32 53.57 53.39 53.08
45.23 46.28 47.97 48.12 49.06 50.44 52.17 53.60 54.53 54.70 54.57 52.04 52.60 53.40 52.09 51.03 49.05 47.05 48.01 48.71 49.31 55.66 57.35 57.93 57.95 57.08 56.91 55.90 56.58 56.18 57.82 58.64 58.75 58.80 57.75 56.34 54.74 53.89 53.36 53.34 52.70 52.71 52.31
44.03 44.51 45.81 47.01 46.78 47.81 49.66 52.23 53.32 54.65 55.05 53.64 52.61 51.14 50.00 49.69 49.59 48.31 46.76 47.17 47.63 48.20 49.56 53.75 54.99 55.11 54.45 54.87 55.25 55.59 57.04 58.60 58.60 58.31 58.11 56.69 55.07 53.87 53.34 52.36 51.58 51.47 51.34
43.19 43.91 45.60 45.49 45.52 46.23 47.63 49.63 52.03 54.24 54.47 53.85 52.06 50.73 49.68 48.18 48.02 47.48 46.16 45.89 47.70 46.81 48.30 49.33 50.67 50.79 51.72 52.76 53.84 54.84 56.13 57.32 57.50 57.23 56.86 55.85 54.54 53.25 52.13 50.93 50.05 49.82 49.77
41.28 42.39 43.68 44.86 44.53 45.13 46.14 48.14 50.01 51.41 53.94 53.88 53.48 53.30 52.16 51.86 50.82 49.66 48.24 45.65 45.82 44.72 45.69 47.10 47.81 48.51 48.96 49.11 50.89 52.55 53.83 55.81 55.56 55.32 55.58 55.14 52.77 51.21 49.51 48.09 48.17 48.00 48.13
41.06 42.25 42.74 44.23 45.18 45.49 45.86 47.00 48.36 50.01 51.71 52.15 50.93 52.90 52.79 51.84 51.23 49.62 48.34 45.68 42.90 42.81 43.61 44.77 46.18 46.81 47.41 48.04 49.28 50.47 51.26 52.14 52.28 52.98 53.76 52.55 50.79 47.77 45.60 45.32 45.75 45.56 45.56
40.98 41.64 41.46 42.33 44.63 45.50 46.30 46.91 46.84 47.79 51.65 51.67 51.61 52.11 52.27 52.44 50.81 50.83 49.35 49.18 48.16 42.05 42.19 43.36 43.07 45.69 46.60 47.35 48.47 47.55 47.90 49.96 50.26 50.70 49.72 47.95 45.93 44.42 43.67 43.92 43.93 43.27 43.37
39.42 40.48 40.49 41.44 42.88 44.05 44.99 46.69 47.67 48.60 49.43 51.51 52.59 52.66 53.11 52.78 51.45 50.56 50.21 49.76 48.99 46.71 43.93 41.71 42.48 43.89 45.50 46.22 48.07 46.08 46.38 48.32 48.95 48.34 46.41 44.40 43.28 42.70 42.52 43.26 42.59 41.95 42.17
37.43 39.57 39.84 40.23 41.44 42.43 43.44 44.71 46.34 47.95 49.37 50.83 51.75 52.24 52.41 52.18 51.02 50.24 49.35 48.74 47.39 47.59 43.98 39.49 40.90 42.51 43.34 43.54 44.70 43.58 45.66 44.52 45.92 46.61 45.38 43.39 42.13 41.66 41.74 42.81 42.35 41.73 41.47
36.15 38.93 38.75 39.58 40.07 41.39 43.13 43.70 44.94 47.82 49.90 50.37 51.11 51.62 51.48 50.75 49.99 49.86 49.36 48.28 48.35 46.89 43.37 38.72 37.73 38.92 40.11 42.68 40.84 41.05 41.62 41.57 41.71 44.93 43.66 42.22 40.73 40.38 40.87 41.99 41.89 41.10 40.12
34.88 37.67 37.66 38.83 38.79 39.97 41.83 42.75 43.94 45.08 49.78 50.45 51.10 51.25 51.16 50.12 48.85 48.60 48.69 48.09 47.73 45.59 43.12 39.90 37.00 37.34 36.38 37.89 36.44 36.77 36.42 35.10 36.12 41.53 42.33 40.65 39.57 39.26 40.43 41.10 40.52 39.20 38.60
34.46 35.35 36.34 38.73 38.59 39.23 40.27 41.96 42.92 44.88 50.28 50.79 51.32 50.91 50.31 49.42 49.01 48.29 47.66 47.14 46.27 44.21 42.11 39.71 36.91 35.00 34.53 35.33 35.74 33.09 31.34 32.27 31.43 34.34 35.97 35.26 36.14 36.69 37.52 38.22 37.08 35.57 35.44
32.87 33.59 35.26 37.94 38.14 38.64 39.67 41.42 42.83 44.02 47.96 49.41 50.02 50.26 50.38 49.14 47.71 48.79 47.80 46.34 45.31 42.98 41.22 38.24 34.84 33.98 32.64 32.51 32.66 33.01 31.76 31.14 30.57 31.46 30.68 30.26 29.70 29.27 29.32 31.84 32.07 33.56 35.23
31.20 31.82 33.29 37.40 37.15 39.21 41.04 42.26 42.89 43.16 45.11 48.65 48.27 48.85 48.55 46.20 46.90 48.14 47.69 46.58 45.58 41.87 39.88 37.85 34.93 34.85 33.10 33.73 33.37 33.21 31.22 29.79 29.10 29.26 28.74 27.78 28.27 25.83 26.27 26.06 31.79 34.05 35.05
29.89 30.21 33.00 36.31 37.28 38.90 41.30 41.93 42.84 43.26 44.64 47.08 46.56 46.05 45.51 46.58 46.69 47.14 46.76 45.99 45.51 45.08 43.43 40.54 37.67 36.02 33.73 34.29 33.95 32.15 31.56 31.06 28.55 26.79 27.09 25.11 25.20 24.02 24.89 26.98 30.95 33.07 34.19
28.45 29.44 33.26 36.64 37.28 38.69 40.90 41.52 42.92 43.17 44.30 44.57 45.10 44.72 43.73 43.56 44.50 43.53 40.28 38.15 37.64 38.64 39.76 39.10 38.60 36.02 35.46 35.56 35.52 34.71 31.84 26.46 26.39 26.39 26.35 20.68 22.51 22.42 23.85 24.14 30.75 33.82 32.35
27.92 30.23 34.22 36.43 37.01 37.54 40.37 41.28 42.23 41.96 40.42 40.11 41.40 42.69 42.89 42.62 43.67 41.50 36.82 34.60 34.73 35.96 39.46 39.46 38.95 38.95 39.01 37.94 34.25 31.73 28.38 27.11 24.12 23.64 24.21 22.34 22.27 21.89 22.56 22.71 25.03 31.01 30.73
29.65 32.17 35.05 36.67 37.27 36.78 39.95 41.60 42.66 38.74 35.66 36.45 38.77 41.02 43.41 42.02 42.49 40.61 35.92 34.63 32.73 33.32 33.58 31.98 31.17 33.19 34.65 35.23 34.82 31.17 28.94 23.33 21.76 18.24 23.69 20.42 21.77 20.66 16.39 22.01 22.80 23.32 23.56
MSLP
1016.80 1016.62 1016.24 1016.01 1015.79 1015.91 1015.96 1016.33 1016.87 1017.24 1017.51 1017.69 1017.81 1017.98 1018.16 1017.98 1018.09 1018.32 1018.46 1018.68 1018.98 1019.20 1019.42 1019.58 1019.95 1020.35 1020.60 1021.00 1021.44 1021.85 1022.41 1023.02 1023.37 1023.70 1023.90 1024.11 1024.32 1024.40 1024.48 1024.62 1024.72 1024.88 1024.94
1017.32 1016.97 1016.64 1016.52 1016.27 1015.97 1016.05 1014.57 1016.63 1017.68 1017.40 1017.54 1017.61 1017.51 1017.50 1017.53 1017.89 1018.09 1018.36 1018.59 1018.73 1018.97 1019.25 1019.49 1019.68 1020.08 1020.50 1020.87 1021.21 1021.93 1022.53 1022.91 1023.45 1023.83 1024.09 1024.24 1024.44 1024.60 1024.68 1024.76 1024.93 1025.06 1025.14
1017.56 1017.23 1017.03 1016.86 1016.49 1016.14 1016.03 1015.95 1015.32 1016.45 1017.04 1017.13 1017.24 1017.43 1017.47 1017.44 1017.40 1017.80 1018.18 1018.37 1018.61 1018.80 1018.84 1019.34 1019.44 1019.90 1020.21 1020.69 1021.20 1021.78 1022.30 1022.80 1023.30 1023.71 1024.08 1024.37 1024.50 1024.68 1024.85 1025.02 1025.10 1025.15 1025.13
1017.77 1017.37 1017.16 1016.86 1016.53 1016.33 1016.25 1016.26 1016.30 1016.72 1016.93 1016.89 1017.55 1017.20 1017.27 1017.41 1017.40 1017.62 1017.78 1018.10 1018.37 1018.52 1018.65 1018.98 1019.49 1019.75 1020.21 1020.58 1021.08 1021.65 1022.21 1022.62 1023.15 1023.64 1024.02 1024.37 1024.54 1024.65 1024.83 1025.05 1025.18 1025.22 1025.25
1018.08 1017.79 1017.52 1017.08 1016.60 1016.34 1016.43 1016.56 1016.68 1016.84 1016.91 1016.94 1017.20 1017.43 1017.28 1017.34 1017.29 1017.29 1017.41 1017.69 1018.04 1018.21 1018.33 1018.64 1019.45 1019.80 1020.06 1020.39 1020.80 1021.37 1022.04 1022.60 1023.00 1023.48 1023.89 1024.27 1024.51 1024.64 1024.73 1024.90 1025.13 1025.30 1025.36
1018.44 1018.16 1017.70 1017.30 1016.88 1016.63 1016.52 1016.59 1016.62 1016.63 1016.73 1016.94 1017.07 1017.48 1017.34 1017.43 1017.24 1017.40 1017.28 1017.44 1017.60 1017.77 1018.05 1018.40 1019.06 1019.55 1019.80 1020.13 1020.56 1021.12 1021.66 1022.35 1022.91 1023.35 1023.73 1024.09 1024.41 1024.67 1024.77 1024.89 1024.98 1025.12 1025.23
1018.63 1018.39 1018.05 1017.49 1017.02 1016.82 1016.50 1016.42 1016.34 1016.49 1016.63 1016.81 1016.87 1017.35 1017.38 1017.30 1017.31 1017.27 1016.90 1017.21 1017.34 1017.47 1017.79 1018.08 1018.51 1019.08 1019.54 1019.88 1020.43 1020.73 1021.40 1022.09 1022.65 1023.08 1023.48 1023.81 1024.29 1024.54 1024.73 1024.77 1024.85 1024.96 1025.00
1018.83 1018.43 1018.21 1017.79 1017.29 1016.87 1016.44 1016.22 1016.23 1016.15 1016.35 1016.70 1016.85 1017.18 1017.21 1017.17 1017.02 1017.12 1017.19 1016.92 1017.19 1017.23 1017.41 1017.67 1018.06 1018.61 1018.95 1019.73 1020.06 1020.41 1021.11 1021.77 1022.30 1022.84 1023.37 1023.71 1023.97 1024.36 1024.55 1024.58 1024.66 1024.66 1024.85
1018.99 1018.54 1018.22 1017.81 1017.39 1016.91 1016.41 1016.07 1015.96 1016.07 1016.11 1016.45 1016.40 1016.80 1017.24 1017.19 1017.22 1017.35 1017.32 1016.76 1017.03 1017.15 1017.13 1017.31 1017.84 1018.27 1018.68 1019.13 1019.58 1020.14 1020.79 1021.39 1021.90 1022.41 1022.96 1023.52 1023.80 1024.11 1024.35 1024.34 1024.55 1024.54 1024.68
1018.79 1018.55 1018.23 1017.84 1017.42 1017.11 1016.57 1016.11 1015.84 1015.73 1015.90 1016.17 1016.41 1016.63 1016.71 1016.92 1017.23 1017.55 1017.44 1017.39 1017.24 1016.71 1017.09 1017.04 1017.36 1018.02 1018.39 1018.76 1019.28 1019.72 1020.33 1021.05 1021.53 1021.86 1022.38 1023.05 1023.49 1023.84 1024.02 1024.24 1024.39 1024.57 1024.67
1018.73 1018.29 1018.08 1017.84 1017.50 1017.27 1016.70 1016.07 1015.79 1015.68 1015.54 1015.58 1015.81 1016.13 1016.30 1017.04 1016.83 1017.13 1017.15 1017.47 1017.58 1016.85 1017.28 1016.84 1017.19 1017.69 1018.22 1018.70 1018.85 1019.49 1019.98 1020.73 1021.08 1021.64 1022.00 1022.43 1023.03 1023.51 1023.77 1024.13 1024.32 1024.60 1024.76
1018.64 1018.11 1017.68 1017.39 1017.40 1017.17 1016.73 1016.05 1015.65 1015.39 1015.23 1015.12 1015.28 1015.50 1015.68 1016.04 1016.27 1016.41 1016.79 1017.19 1017.11 1017.40 1017.31 1017.22 1017.66 1017.73 1018.16 1018.22 1018.89 1019.24 1019.71 1020.41 1021.02 1021.34 1021.68 1022.21 1022.68 1023.06 1023.64 1024.24 1024.39 1024.64 1024.69
1018.71 1018.06 1017.64 1017.12 1016.90 1016.64 1016.30 1015.80 1015.38 1015.24 1014.92 1014.67 1014.61 1014.69 1014.83 1015.05 1015.32 1015.62 1016.08 1016.82 1017.06 1017.71 1017.86 1017.73 1017.96 1018.02 1018.03 1018.44 1018.76 1019.21 1019.62 1020.32 1020.72 1021.34 1021.45 1021.94 1022.58 1023.17 1023.84 1024.24 1024.47 1024.57 1024.70
1018.52 1017.79 1017.18 1016.65 1016.21 1015.79 1015.69 1015.37 1015.17 1014.81 1014.53 1014.24 1014.20 1014.30 1014.45 1014.70 1014.91 1015.15 1015.39 1016.00 1016.89 1017.63 1018.00 1017.72 1017.86 1018.01 1018.21 1018.46 1018.93 1019.20 1019.73 1019.95 1020.78 1021.46 1021.70 1021.99 1022.52 1023.42 1023.76 1024.44 1024.63 1024.68 1024.69
1018.24 1017.57 1017.03 1016.50 1016.01 1015.63 1015.28 1014.90 1014.51 1014.27 1013.92 1013.59 1013.40 1013.47 1013.74 1014.01 1014.36 1014.42 1014.60 1014.89 1015.56 1017.04 1017.36 1017.77 1017.89 1017.97 1018.29 1018.64 1018.94 1019.40 1019.85 1020.23 1020.81 1021.48 1021.96 1022.35 1022.87 1023.39 1023.95 1024.28 1024.50 1024.67 1024.80
1018.16 1017.60 1017.05 1016.44 1015.73 1015.19 1014.73 1014.27 1013.89 1013.49 1013.16 1012.81 1012.59 1012.63 1012.87 1013.16 1013.52 1013.80 1014.10 1014.24 1014.96 1015.47 1016.72 1017.46 1017.80 1017.98 1018.11 1018.44 1019.07 1019.52 1020.03 1020.45 1021.01 1021.52 1022.39 1022.76 1023.28 1023.49 1023.68 1024.06 1024.26 1024.57 1024.67
1017.92 1017.33 1016.72 1015.81 1015.05 1014.53 1014.22 1013.73 1013.24 1012.88 1012.30 1011.94 1011.87 1011.72 1012.08 1012.48 1012.80 1013.03 1013.40 1013.82 1014.49 1015.03 1016.04 1017.47 1017.65 1018.02 1018.34 1018.82 1019.25 1019.76 1020.20 1020.70 1021.21 1021.85 1022.37 1022.73 1023.26 1023.37 1023.64 1023.94 1024.25 1024.41 1024.41
1017.50 1016.88 1016.16 1015.24 1014.58 1014.02 1013.57 1013.16 1012.71 1012.09 1011.22 1011.03 1011.08 1011.20 1011.34 1011.76 1012.12 1012.41 1012.82 1013.18 1013.83 1014.52 1015.37 1016.82 1017.86 1018.15 1018.45 1018.98 1019.43 1019.92 1020.47 1021.02 1021.43 1021.84 1022.31 1022.77 1023.27 1023.44 1023.71 1023.80 1024.08 1024.21 1024.29
1016.95 1016.22 1015.66 1014.79 1014.17 1013.65 1013.10 1012.70 1012.18 1011.44 1010.28 1010.12 1010.11 1010.29 1010.54 1010.94 1011.43 1011.79 1012.10 1012.73 1013.35 1014.09 1014.90 1016.03 1017.40 1018.08 1018.96 1019.20 1019.69 1020.42 1020.88 1021.49 1021.76 1022.15 1022.36 1022.72 1023.08 1023.29 1023.47 1023.70 1024.05 1024.17 1024.22
1016.39 1015.72 1015.06 1014.28 1013.61 1013.00 1012.46 1011.91 1011.39 1010.57 1009.21 1008.89 1009.15 1009.36 1009.63 1010.18 1010.68 1011.09 1011.60 1012.25 1012.88 1013.72 1014.73 1015.58 1016.76 1017.84 1018.59 1019.29 1019.67 1020.48 1021.26 1021.75 1022.17 1022.44 1022.76 1023.00 1023.25 1023.43 1023.51 1023.66 1023.90 1024.19 1024.34
1015.88 1015.24 1014.44 1013.47 1012.88 1012.32 1011.66 1011.13 1010.61 1009.98 1009.01 1008.37 1008.04 1008.68 1008.89 1009.26 1009.82 1010.41 1010.69 1011.68 1012.43 1013.44 1014.32 1015.33 1016.47 1017.52 1018.32 1019.06 1019.49 1020.21 1021.21 1021.92 1022.59 1022.81 1023.03 1023.26 1023.56 1023.77 1023.89 1024.04 1024.14 1024.17 1024.19
1015.37 1014.68 1013.82 1012.73 1012.06 1011.52 1010.90 1010.46 1010.00 1009.31 1008.36 1007.74 1007.73 1007.88 1008.37 1008.66 1009.35 1009.92 1010.51 1011.10 1011.61 1012.86 1013.87 1014.78 1015.92 1016.70 1017.48 1018.11 1019.03 1019.71 1020.77 1021.95 1022.57 1022.72 1022.99 1023.43 1023.78 1023.93 1024.06 1024.21 1024.05 1023.94 1023.89
1014.80 1014.04 1012.98 1011.92 1011.31 1010.67 1010.10 1009.55 1009.03 1008.48 1007.68 1006.97 1006.88 1007.24 1007.71 1008.33 1009.01 1009.58 1010.17 1010.98 1011.74 1012.42 1012.88 1013.56 1014.75 1015.92 1016.85 1017.29 1018.06 1019.47 1020.11 1021.26 1022.03 1022.83 1022.96 1023.76 1024.05 1024.05 1024.10 1024.06 1023.87 1023.78 1023.80
1014.25 1013.32 1012.11 1011.20 1010.59 1009.76 1009.24 1008.68 1008.04 1007.57 1006.97 1006.51 1006.56 1006.83 1007.48 1008.18 1008.58 1009.24 1010.50 1011.75 1012.36 1012.76 1013.22 1013.73 1014.43 1015.22 1015.91 1017.00 1017.71 1018.63 1019.84 1021.41 1022.43 1023.06 1023.33 1023.93 1024.16 1024.17 1024.12 1023.98 1023.66 1023.59 1023.94
1013.48 1012.42 1011.35 1010.49 1009.75 1009.00 1008.43 1007.92 1007.32 1006.92 1006.57 1006.38 1006.54 1006.76 1007.03 1007.85 1008.58 1009.43 1010.72 1011.86 1012.96 1013.61 1013.74 1014.13 1014.55 1015.43 1016.06 1016.95 1017.90 1018.80 1020.30 1021.27 1022.70 1023.41 1023.70 1023.88 1024.37 1024.33 1024.23 1024.08 1023.79 1023.74 1023.97
1012.63 1011.61 1010.60 1009.88 1009.21 1008.31 1007.54 1006.86 1006.55 1006.60 1006.61 1006.58 1006.79 1007.10 1007.36 1007.98 1008.80 1009.54 1010.74 1011.77 1013.08 1014.20 1014.47 1015.10 1015.84 1016.76 1017.06 1017.65 1018.34 1018.82 1019.88 1021.22 1022.46 1023.52 1023.66 1024.09 1024.46 1024.62 1024.52 1024.16 1024.13 1024.16 1024.09
Wind_Speed
5 5 4 2 2 2 4 4 4 2 3 3 4 6 6 5 5 3 3 8 9 12 17 19 18 16 17 18 16 12 11 10 10 10 10 9 9 8 8 6 7 7 6
4 5 5 3 1 3 2 7 6 5 2 3 8 7 8 6 6 5 4 4 11 13 17 19 19 19 18 17 17 15 14 13 13 11 10 9 8 8 8 7 7 6 6
5 5 3 3 3 3 4 4 8 3 4 3 6 4 3 5 4 6 5 4 6 11 16 19 20 19 19 17 17 17 17 16 13 12 10 9 9 8 7 7 6 5 4
7 5 4 4 3 2 1 1 3 5 4 2 4 4 3 4 6 6 5 5 5 5 11 18 18 20 19 19 17 17 17 16 15 13 12 10 9 8 7 7 5 5 3
8 6 5 4 4 2 3 2 2 3 4 4 2 2 3 4 5 5 7 7 7 6 6 16 15 16 18 20 19 17 17 16 16 14 13 11 10 9 8 7 5 3 2
8 7 5 6 4 3 4 4 5 5 4 4 2 0 1 3 2 5 5 5 7 8 8 10 11 10 17 19 20 20 19 18 16 15 13 12 10 9 7 6 5 4 5
8 7 5 6 5 6 5 6 6 4 2 3 2 1 2 3 3 4 5 6 6 7 10 9 8 7 9 18 18 20 19 19 17 16 14 12 10 8 7 6 5 4 3
9 7 6 7 6 6 6 5 6 2 2 3 3 2 2 2 1 3 3 6 8 7 9 10 11 11 10 8 10 18 20 19 17 15 13 12 10 8 6 5 5 5 4
9 8 8 7 7 4 5 5 5 5 5 2 4 3 2 3 1 0 2 3 6 6 7 8 8 9 10 8 11 14 16 18 18 17 14 11 9 8 6 5 5 4 4
7 8 8 8 8 7 7 7 6 6 5 4 2 4 1 2 3 2 1 1 5 6 9 7 7 8 9 7 10 12 17 16 18 17 15 13 10 8 6 5 2 3 5
6 5 8 8 8 7 8 7 6 5 6 6 4 2 2 1 2 3 3 3 2 1 3 2 4 5 7 6 9 10 15 17 18 15 15 13 11 9 6 3 2 4 6
6 6 7 10 6 8 9 8 7 7 7 7 5 5 4 4 4 3 2 1 1 1 1 2 1 4 4 6 7 11 19 19 19 16 13 12 10 8 5 3 3 4 5
6 7 8 8 9 11 9 9 8 7 7 6 7 6 6 6 3 2 3 2 3 1 2 0 1 2 4 4 6 13 17 16 16 15 15 13 9 8 6 3 4 3 5
8 9 8 9 10 9 11 11 7 8 8 7 8 7 6 6 5 4 4 5 2 0 1 2 1 3 3 5 6 12 9 17 14 12 13 10 10 9 4 3 3 3 4
8 10 9 10 11 10 10 10 9 10 10 9 9 9 8 7 6 6 4 4 4 5 5 4 2 3 5 5 9 7 8 14 13 11 8 10 10 7 5 4 3 3 4
10 10 10 10 12 10 11 10 9 11 11 9 7 9 9 8 9 6 6 5 4 4 3 2 1 2 4 4 8 7 7 12 14 12 11 9 8 6 5 6 4 4 4
12 11 11 12 12 13 11 11 11 14 15 11 10 10 11 9 7 7 6 5 5 4 3 1 2 1 3 6 5 5 7 6 6 13 12 9 6 4 4 7 7 5 5
12 11 11 12 12 13 12 12 13 14 13 12 11 11 12 7 9 8 7 8 6 5 4 5 2 1 2 5 5 7 5 4 4 10 9 8 5 4 5 7 6 5 5
12 11 11 13 13 14 13 12 13 15 16 13 12 11 10 11 10 8 8 8 7 5 3 4 4 2 2 2 4 5 5 4 3 7 8 7 5 3 4 4 5 5 4
12 12 13 14 14 15 14 13 14 14 15 12 13 12 12 12 12 11 9 9 7 7 4 4 3 3 3 2 3 4 4 2 3 2 4 4 3 1 2 4 1 1 2
12 13 14 15 15 15 12 12 12 13 14 10 11 9 11 13 14 13 9 9 9 7 7 5 4 3 3 5 7 4 3 4 2 1 2 2 1 1 0 2 1 1 5
13 13 14 14 15 11 19 22 19 13 13 15 11 10 9 14 14 18 15 16 14 10 8 6 4 4 4 5 4 8 6 4 3 1 2 2 0 1 1 1 3 4 5
13 14 15 14 14 14 21 23 23 11 12 9 8 8 8 7 12 9 13 14 14 14 11 9 8 5 7 9 11 8 5 3 3 2 2 2 0 1 1 1 4 4 0
13 13 14 13 14 12 21 23 21 12 10 7 9 10 9 9 10 12 12 9 9 6 5 4 6 7 7 10 9 5 7 7 6 4 1 2 1 1 1 2 4 5 2
13 13 13 13 13 13 20 21 17 9 4 4 5 7 10 10 20 23 14 13 11 8 12 15 16 15 19 19 13 9 6 7 3 1 2 3 0 1 1 1 1 1 4
14 11 13 12 15 14 19 22 17 3 4 3 5 6 16 14 25 25 14 14 14 9 12 13 12 14 14 14 12 5 8 5 4 2 1 3 1 2 3 1 1 1 2
Wind_Direction
354 349 324 322 308 221 161 154 90 25 183 209 198 193 194 195 183 194 195 221 220 196 183 169 164 164 158 156 157 151 154 150 151 152 148 144 141 139 124 112 107 94 104
353 354 336 323 267 161 125 124 112 214 248 219 221 203 196 183 186 192 205 222 213 207 195 184 173 167 167 163 159 154 160 162 159 159 161 150 150 140 135 126 110 103 84
348 352 333 316 287 290 224 208 164 269 219 203 220 219 212 218 189 200 210 204 215 214 196 194 178 173 172 167 162 163 166 158 165 163 162 161 159 152 147 127 125 125 103
348 350 349 323 282 175 132 349 169 197 231 202 243 217 176 206 214 215 197 202 203 199 197 191 181 180 174 173 169 168 169 169 166 168 169 169 168 165 160 154 144 146 111
350 352 333 318 307 230 197 206 253 226 223 236 227 259 226 221 232 223 211 204 195 188 176 187 183 186 178 176 169 176 172 172 172 172 174 176 177 176 175 175 174 184 170
344 343 331 331 323 273 249 227 225 208 216 226 179 136 351 311 257 229 228 219 202 188 178 174 179 190 181 179 180 178 176 177 178 177 178 180 182 186 189 193 196 207 236
342 337 331 325 323 299 251 252 242 214 188 150 116 316 218 228 276 285 219 209 198 183 184 172 172 175 181 182 186 182 179 179 182 182 183 181 186 191 198 204 219 236 273
335 334 328 321 310 305 284 249 243 219 163 186 143 50 275 252 176 240 306 210 207 184 182 184 177 175 168 180 188 181 182 182 184 185 187 187 187 194 204 215 234 259 288
332 333 329 327 319 300 288 272 246 222 232 183 173 181 188 235 357 179 214 314 190 195 181 170 177 183 182 176 173 173 179 184 185 183 186 192 190 196 210 225 242 262 318
330 334 329 332 331 324 308 286 262 242 207 197 177 214 252 232 188 291 233 202 314 189 189 186 176 178 189 170 175 171 177 181 190 187 183 191 194 199 211 231 251 300 304
315 327 335 327 333 324 314 304 271 244 230 226 197 162 126 233 161 221 179 205 245 25 321 127 165 164 183 173 165 167 169 186 189 191 194 187 194 207 214 202 243 292 301
318 321 320 325 315 315 312 312 292 257 234 222 199 188 179 176 184 177 175 268 204 142 176 192 199 151 157 154 170 180 174 179 191 189 195 194 198 199 185 207 254 283 301
311 306 316 313 315 309 300 295 301 273 244 234 230 223 213 215 152 164 151 164 162 159 200 124 179 170 139 141 171 168 168 181 177 194 196 191 191 159 162 206 258 278 296
295 303 306 312 303 297 297 295 286 282 250 228 218 219 222 216 191 177 175 141 90 211 242 173 145 182 154 148 151 143 154 152 166 199 201 182 151 149 143 223 254 291 299
294 300 307 303 297 291 287 284 282 278 262 234 216 213 213 220 211 199 186 163 154 175 219 211 170 170 152 150 160 148 141 152 160 178 167 136 140 147 177 218 214 277 289
292 288 292 292 301 288 290 283 276 276 262 250 224 213 213 209 206 196 190 183 182 165 175 141 171 134 141 128 167 146 146 152 160 156 157 152 168 176 193 209 207 246 267
293 284 290 294 302 299 291 286 278 271 257 250 238 214 219 202 204 190 179 172 168 152 133 49 87 102 117 136 136 123 143 136 150 165 176 171 184 186 207 217 217 241 277
290 285 293 293 299 298 290 291 283 283 245 245 235 221 216 193 199 193 181 178 179 162 139 140 142 117 94 153 131 123 122 113 125 162 168 178 184 197 227 230 224 253 275
290 291 294 290 294 297 286 280 278 279 254 238 228 216 211 194 194 187 183 177 172 153 134 130 140 113 97 120 99 85 118 99 103 164 186 177 186 199 225 217 241 266 300
295 295 288 284 293 296 288 282 281 279 265 229 224 215 212 203 201 186 180 175 161 151 146 134 108 117 124 103 105 135 129 116 118 119 114 124 136 157 221 238 158 50 307
294 291 286 284 295 293 287 284 283 284 278 234 214 203 201 191 189 192 165 170 160 154 155 137 120 131 134 152 167 147 115 118 81 146 146 120 120 91 14 55 56 305 287
293 291 287 281 296 286 286 286 283 279 286 234 210 196 184 179 179 177 175 169 160 154 157 147 144 158 155 145 137 149 132 145 172 157 136 122 122 191 171 198 263 286 295
294 288 288 289 290 284 282 286 281 275 281 217 193 182 172 175 167 169 158 154 161 164 166 155 161 165 157 172 145 141 135 123 103 107 106 164 33 260 242 267 308 276 356
292 290 286 288 289 283 283 283 283 276 259 205 188 170 160 151 141 127 112 101 91 77 109 125 143 135 123 141 142 135 121 100 89 76 68 134 23 255 314 312 267 161 35
292 289 287 292 286 289 281 279 277 267 219 168 143 144 136 141 138 130 120 110 97 91 99 105 108 120 134 129 123 118 125 132 108 114 33 110 106 318 349 309 317 203 345
288 289 288 290 291 289 285 273 261 174 138 122 104 121 141 142 142 134 127 125 115 112 108 94 83 82 89 109 112 91 139 125 120 63 269 99 84 33 360 1 307 285 315